Tracking 31027 objects as of 19-Jul-2025
HD Live streaming from Space Station
objects crossing your sky now

STARLINK-3124

Track STARLINK-3124 now!
10-day predictions
STARLINK-3124 is classified as:


NORAD ID: 49456
Int'l Code: 2021-104BA
Perigee: 545.9 km
Apogee: 547.8 km
Inclination: 53.2 °
Period: 95.4 minutes
Semi major axis: 6917 km
RCS: Unknown
Launch date: November 13, 2021
Source: United States (US)
Launch site: AIR FORCE EASTERN TEST RANGE (AFETR)
Your satellite tracking list
KORSAT 7
Track 1 satellite(s)




NASA's NSSDC Master Catalog

Two Line Element Set (TLE):
1 49456U 21104BA  25199.38219508 -.00002030  00000-0 -10946-3 0  9998
2 49456  53.2160 191.0158 0001382  90.3465 269.7685 15.08844329203409
Source of the keplerian elements: AFSPC